Simultaneous Nadir Overpasses (SNOs) Predictions

Prediction of SNOs between AQUA and NPP Satellite Orbit:

Table of predicted SNOs for the next 14.0 days since TLE Epoch: 3/20/2021
Index Date (AQUA) Time (AQUA) Lat,Lon (AQUA) SZA (AQUA ) Date (NPP) Time (NPP) Lat,Lon (NPP) SZA (NPP ) Distance(km) Time Diff (sec)
1 03/21/2021 22:38:04 -76.12,-100.16 83.18 03/21/2021 22:37:57 -76.12,-100.15 83.18 0.29 7
2 03/21/2021 23:27:11 77.03, 70.59 95.74 03/21/2021 23:28:21 77.03, 70.60 95.68 0.28 70
3 03/24/2021 14:05:25 75.14,-154.76 96.88 03/24/2021 14:04:26 75.13,-154.85 96.96 2.67 59
4 03/24/2021 14:54:29 -76.28, 16.24 84.44 03/24/2021 14:54:47 -76.28, 16.17 84.44 1.88 18
5 03/27/2021 06:21:41 75.80, -37.03 95.07 03/27/2021 06:21:06 75.80, -36.99 95.09 1.20 35
6 03/27/2021 07:10:47 -76.82, 133.94 86.14 03/27/2021 07:11:29 -76.83, 134.03 86.20 2.29 42
7 03/29/2021 22:38:06 76.00, 79.46 93.78 03/29/2021 22:37:56 76.00, 79.44 93.79 0.39 10
8 03/29/2021 23:27:13 -76.97,-109.64 87.38 03/29/2021 23:28:20 -76.97,-109.61 87.45 0.88 67
9 04/01/2021 14:05:26 -75.17, 25.31 86.33 04/01/2021 14:04:24 -75.17, 25.28 86.27 1.04 62



Historial Predications of SNOs between AQUA and NPP
